Location: ???? ????
(41.4149°N, 22.8816°E)
Time: 14:34:22
(UTC+00:00)

Meteor 1-13 Rocket - Pass Details

Date: 14 July 2020
Orbit: 830 x 913 km, 81.3° (Epoch: 04 August)

Event Time Altitude Azimuth Distance (km) Brightness Sun altitude
Rises 01:07:31 0° 345° (NNW) 3,483 8.0 -17.7°
Reaches altitude 10° 01:10:03 10° 340° (NNW) 2,528 7.1 -17.4°
Maximum altitude 01:15:33 51° 267° (W) 1,077 4.5 -16.7°
Enters shadow 01:18:38 25° 203° (SSW) 1,665 5.2 -16.4°
